K7TUS-6 Weather Reports


Display with metric or nautical units.
time (UTC)temp
F
wind
direction
speed
MPH
gust
MPH
rain 1hr
in
rain 24hr
in
rain mn
in
humidity
%
barometer
mb
20260831234007 66 318 1.0 3.0 0.00 0.00 0.00 20 989.6
20260831232004 67 46 2.0 5.0 0.00 0.00 0.00 21 988.6
20260831230508 66 46 1.0 3.0 0.00 0.00 0.00 26 989.8
20260831225004 64 11 2.0 4.0 0.00 0.00 0.00 29 989.9
20260831221004 56 146 7.0 10.0 0.00 0.00 0.00 34 990.2
20260831214507 51 192 10.0 14.0 0.00 0.00 0.00 38 989.8
20260831211506 50 90 6.0 7.0 0.00 0.00 0.00 40 990.6
20260831210008 52 104 7.0 8.0 0.00 0.00 0.00 43 991.9
20260831200507 52 101 5.0 8.0 0.00 0.00 0.00 46 992.6
20260831194505 51 173 14.0 18.0 0.00 0.00 0.00 42 992.6
20260831193504 51 168 9.0 11.0 0.00 0.00 0.00 43 993.2
20260831193028 50 160 13.0 16.0 0.00 0.00 0.00 41 992.8
20260831191007 50 169 9.0 12.0 0.00 0.00 0.00 36 993.1
20260831185005 54 208 3.0 5.0 0.00 0.00 0.00 42 993.5
20260831173508 56 350 6.0 8.0 0.00 0.00 0.00 46 992.7
20260831170004 57 342 8.0 8.0 0.00 0.00 0.00 38 992.5
20260831164503 62 349 4.0 4.0 0.00 0.00 0.00 28 992.4
20260831163007 65 45 4.0 4.0 0.00 0.00 0.00 24 992.1
20260831162005 65 64 5.0 5.0 0.00 0.00 0.00 22 992.2
20260831154510 62 55 6.0 7.0 0.00 0.00 0.00 27 992.1
20260831154012 62 58 6.0 8.0 0.00 0.00 0.00 25 992.8
20260831152008 63 91 6.0 7.0 0.00 0.00 0.00 31 992.7
20260831144513 56 62 7.0 8.0 0.00 0.00 0.00 45 991.8
20260831141506 55 47 9.0 11.0 0.00 0.00 0.00 50 991.0
20260831140502 55 47 9.0 10.0 0.00 0.00 0.00 51 991.4
20260831135006 54 47 8.0 10.0 0.00 0.00 0.00 55 991.0
20260831132004 53 1 10.0 12.0 0.00 0.00 0.00 53 991.3
20260831125507 57 52 7.0 9.0 0.00 0.00 0.00 38 991.9
20260831124506 57 75 7.0 8.0 0.00 0.00 0.00 38 991.1
20260831123004 56 40 5.0 7.0 0.00 0.00 0.00 44 990.9
20260831122002 56 145 2.0 5.0 0.00 0.00 0.00 38 990.5
20260831121508 57 193 4.0 9.0 0.00 0.00 0.00 34 991.1
20260831120006 61 56 2.0 5.0 0.00 0.00 0.00 25 989.9
20260831113003 66 154 3.0 4.0 0.00 0.00 0.00 24 990.1
20260831112502 67 113 4.0 5.0 0.00 0.00 0.00 24 990.1
20260831112008 66 55 4.0 5.0 0.00 0.00 0.00 21 991.0
20260831111506 66 84 3.0 3.0 0.00 0.00 0.00 23 991.0
20260831110505 64 62 3.0 4.0 0.00 0.00 0.00 24 990.7
20260831104502 62 19 3.0 3.0 0.00 0.00 0.00 30 990.2
20260831100003 71 63 2.0 2.0 0.00 0.00 0.00 14 991.1
20260831094502 70 80 2.0 3.0 0.00 0.00 0.00 15 990.7
20260831094007 69 73 2.0 3.0 0.00 0.00 0.00 14 990.7
20260831093005 71 75 3.0 3.0 0.00 0.00 0.00 12 990.7
20260831085506 71 102 2.0 2.0 0.00 0.00 0.00 14 991.2
20260831084505 69 90 2.0 2.0 0.00 0.00 0.00 18 991.6
20260831084004 68 88 3.0 3.0 0.00 0.00 0.00 20 991.9
20260831083504 67 65 2.0 2.0 0.00 0.00 0.00 21 991.9
20260831082509 66 58 2.0 2.0 0.00 0.00 0.00 24 992.0
20260831080507 63 1 3.0 4.0 0.00 0.00 0.00 28 991.4
20260831075506 63 50 3.0 3.0 0.00 0.00 0.00 30 992.2
20260831063509 68 123 3.0 4.0 0.00 0.00 0.00 17 992.2
20260831062007 69 104 3.0 4.0 0.00 0.00 0.00 18 993.4
20260831060506 70 106 4.0 5.0 0.00 0.00 0.00 15 991.0
20260831053509 67 63 1.0 2.0 0.00 0.00 0.00 20 991.7
20260831052006 66 40 1.0 2.0 0.00 0.00 0.00 19 992.0
20260831043507 67 138 1.0 1.0 0.00 0.00 0.00 20 993.3
20260831035008 64 354 4.0 5.0 0.00 0.00 0.00 26 991.6
20260831030008 65 358 2.0 3.0 0.00 0.00 0.00 22 992.3
20260831025007 66 278 2.0 4.0 0.00 0.00 0.00 20 992.4
20260831021009 67 10 2.0 3.0 0.00 0.00 0.00 19 991.5
20260831015006 67 110 1.0 2.0 0.00 0.00 0.00 20 991.2
20260831014005 67 21 1.0 2.0 0.00 0.00 0.00 20 990.3
20260831012509 68 89 1.0 2.0 0.00 0.00 0.00 16 991.3
20260831012039 68 89 2.0 3.0 0.00 0.00 0.00 16 990.9
20260831005506 70 36 2.0 2.0 0.00 0.00 0.00 16 992.0
20260831005005 69 20 2.0 2.0 0.00 0.00 0.00 19 992.5
20260831001506 74 9 3.0 3.0 0.00 0.00 0.00 14 991.9
20260831000504 76 83 2.0 2.0 0.00 0.00 0.00 15 992.4
20260830235009 76 75 2.0 3.0 0.00 0.00 0.00 15 992.0